weather.gov     
National Weather Service

Weather Roundup
NWS Homepage
This page is being discontinued on March 12, 2014.
The same data is available at this site. Please update your bookmarks.
Thank you, and we apologize for the inconvenience.
Please send an email to SR-SRH.Webmaster@noaa.gov with any concerns.


Current Version
Previous Version:    01  02  03  04  05  06  07  08  09  10  11  12  13  14  15  16  17  18  19  20  21  22  23  24  25  26  27  28  29  30  
   31  32  33  34  35  36  37  38  39  40  41  42  43  44  45  46  47  48  49  50  51  52  53  54  55  56  57  58  59  60  
[Printable]
794
ASUS44 KCRP 011410
HRRCRP

SOUTH TEXAS REGIONAL WEATHER ROUNDUP
NATIONAL WEATHER SERVICE CORPUS CHRISTI TX
900 AM CDT MON SEP 01 2014


TXZ229>244-011500-
...CORPUS CHRISTI AREA OBSERVATIONS...

CITY           SKY/WX    TMP DP  RH WIND       PRES   REMARKS
CORPUS CHRISTI MOSUNNY   83  80  91 SE8       29.92S HX  95
NAS CORPUS CHR SUNNY     86  79  79 S10       29.92R HX  99
ROCKPORT       SUNNY     86  78  77 SE9       29.93R HX  98
KINGSVILLE NAS MOSUNNY   81  80  97 SE10      29.92R HX  91
ALICE          CLOUDY    81  79  94 SE6       29.92R HX  90
FALFURRIAS     MOSUNNY   70  66  87 SE6       29.91S
$$

...VICTORIA AREA OBSERVATIONS...

CITY           SKY/WX    TMP DP  RH WIND       PRES   REMARKS
VICTORIA       SUNNY     83  80  91 SE7       29.94R HX  95
BEEVILLE       PTSUNNY   81  80  96 SE7       29.93S HX  91
PLEASANTON     CLOUDY    80  75  85 SE6       29.94S
SAN ANTONIO    PTSUNNY   81  74  79 S12       29.96R
$$

...LAREDO AREA OBSERVATIONS...

CITY           SKY/WX    TMP DP  RH WIND       PRES   REMARKS
LAREDO         SUNNY     83  74  74 SE14      29.93R
COTULLA        SUNNY     82  74  76 SE12      29.92R
DEL RIO        MOSUNNY   80  71  74 SE14      29.91S
MCALLEN        MOSUNNY   81  78  91 SE8       29.91R
HEBBRONVILLE   PTSUNNY   80  75  84 SE12      29.93S
$$

...OTHER TEXAS OBSERVATIONS...

CITY           SKY/WX    TMP DP  RH WIND       PRES   REMARKS
BROWNSVILLE    MOSUNNY   84  79  85 SE5       29.91R HX  96
HOUSTON        MOSUNNY   81  79  94 CALM      29.96S
COL. STATION   CLOUDY    78  75  90 SE7       29.96F
AUSTIN         PTSUNNY   82  75  79 S10       29.95R
WACO           CLOUDY    80  74  81 S16       29.93S
FORT WORTH     PTSUNNY   81  72  74 S22       29.91S
WICHITA FALLS  SUNNY     81  70  69 S20       29.84S
LUBBOCK        SUNNY     78  62  57 SW17      29.92R
EL PASO        MOSUNNY   75  47  36 E3        30.01R
$$

...MARINE OBSERVATIONS...

STATION/POSITION TIME  SKY/WX   TEMP    WIND        PRES    VSBY  WAVE   SWELL
                                AIR SEA DIR/SP/G                  HT/PER HT/PER
                 (UTC)          (F)     (DEG/KT/KT) (MB)    (MI)  (FT/S) (FT/S)
PORT ARANSAS     1400            84 83  130/ 12/ 13 1013.8R
BUOY 90 E PORT A 1400            85 85  130/  8/ 10 1014.2R         3/ 7   3/ 7
BUOY 45 SE BAFFI 1400            85 85  140/ 12/ 14 1012.5R         4/ 7   3/ 7
BUOY 200 E PT IS 1400            83 84  120/ 10/ 12 1014.0R         3/ 6   2/ 6
BUOY 15 E GALVES 1400            84 85  140/ 12/ 12 1014.2R         3/ 7   2/ 7
$$




U.S. Dept. of Commerce
NOAA National Weather Service
1325 East West Highway
Silver Spring, MD 20910
E-mail: w-nws.webmaster@noaa.gov
Page last modified: May 16, 2007
NATIONAL WEATHER SERVICE: for Safety, for Work, for Fun - FOR LIFE